• In Hungary
  • List of Countries
  • For 7 days
  • Water Temperature
  • Satellite Maps
  • Weather Map
  • News
  • Weather Widgets
  • user-avatar
    Login

    Hourly Weather Irati

    Today, 13 November, Tuesday

    Time Temperature Precipitation Wind Pressure Humidity
    00:00 +21°C° 0 mm 2 mps 685 mmHg 91%
    01:00 +20°C° 0 mm 2 mps 685 mmHg 91%
    02:00 +20°C° 0 mm 2 mps 685 mmHg 90%
    03:00 +21°C° 0 mm 1 mps 684 mmHg 91%
    04:00 +21°C° 0 mm 1 mps 684 mmHg 92%
    05:00 +20°C° 0 mm 1 mps 684 mmHg 92%
    06:00 +20°C° 0 mm 1 mps 685 mmHg 93%
    07:00 +22°C° 0 mm 1 mps 685 mmHg 83%
    08:00 +25°C° 0 mm 1 mps 686 mmHg 73%
    09:00 +27°C° 0 mm 2 mps 686 mmHg 63%
    10:00 +29°C° 0 mm 2 mps 686 mmHg 57%
    11:00 +31°C° 0 mm 2 mps 686 mmHg 51%
    12:00 +34°C° 0 mm 2 mps 686 mmHg 45%
    13:00 +34°C° 0 mm 2 mps 685 mmHg 46%
    14:00 +34°C° 0 mm 2 mps 685 mmHg 47%
    15:00 +32°C° 0 mm 2 mps 684 mmHg 47%
    16:00 +31°C° 0.1 mm 2 mps 684 mmHg 56%
    17:00 +29°C° 0.1 mm 1 mps 684 mmHg 64%
    18:00 +27°C° 0.1 mm 1 mps 683 mmHg 73%
    19:00 +26°C° 0.1 mm 1 mps 684 mmHg 78%
    20:00 +25°C° 0.1 mm 1 mps 684 mmHg 83%
    21:00 +23°C° 0.1 mm 1 mps 684 mmHg 88%
    22:00 +23°C° 0 mm 1 mps 683 mmHg 89%
    23:00 +23°C° 0 mm 1 mps 683 mmHg 90%

    Tomorrow, 14 November, Wednesday

    Time Temperature Precipitation Wind Pressure Humidity
    00:00 +23°C° 0 mm 1 mps 683 mmHg 90%
    01:00 +22°C° 0 mm 1 mps 683 mmHg 91%
    02:00 +22°C° 0 mm 1 mps 682 mmHg 91%
    03:00 +22°C° 0 mm 1 mps 682 mmHg 91%
    04:00 +22°C° 0 mm 1 mps 682 mmHg 92%
    05:00 +22°C° 0 mm 1 mps 682 mmHg 93%
    06:00 +22°C° 0 mm 1 mps 682 mmHg 95%
    07:00 +24°C° 0.1 mm 2 mps 683 mmHg 85%
    08:00 +26°C° 0.1 mm 2 mps 684 mmHg 76%
    09:00 +28°C° 0.1 mm 3 mps 684 mmHg 67%
    10:00 +28°C° 0.3 mm 3 mps 684 mmHg 66%
    11:00 +28°C° 0.3 mm 3 mps 684 mmHg 66%
    12:00 +28°C° 0.3 mm 3 mps 684 mmHg 66%
    13:00 +28°C° 0.2 mm 3 mps 684 mmHg 66%
    14:00 +28°C° 0.2 mm 2 mps 683 mmHg 66%
    15:00 +29°C° 0.2 mm 2 mps 683 mmHg 66%
    16:00 +27°C° 0.4 mm 1 mps 683 mmHg 74%
    17:00 +26°C° 0.4 mm 1 mps 683 mmHg 83%
    18:00 +22°C° 0.4 mm 0 mps 682 mmHg 92%
    19:00 +21°C° 0.1 mm 0 mps 682 mmHg 93%
    20:00 +21°C° 0.1 mm 0 mps 683 mmHg 94%
    21:00 +20°C° 0.1 mm 0 mps 683 mmHg 96%
    22:00 +20°C° 0 mm 0 mps 683 mmHg 96%
    23:00 +20°C° 0 mm 0 mps 683 mmHg 97%

    Day after tomorrow, 15 November, Thursday

    Time Temperature Precipitation Wind Pressure Humidity
    00:00 +20°C° 0 mm 0 mps 683 mmHg 97%
    01:00 +19°C° 0 mm 0 mps 683 mmHg 97%
    02:00 +19°C° 0 mm 0 mps 682 mmHg 98%
    03:00 +19°C° 0 mm 0 mps 682 mmHg 98%
    04:00 +21°C° 0 mm 1 mps 682 mmHg 98%
    05:00 +20°C° 0 mm 1 mps 682 mmHg 98%
    06:00 +20°C° 0 mm 1 mps 683 mmHg 97%
    07:00 +21°C° 0.1 mm 1 mps 683 mmHg 92%
    08:00 +22°C° 0.1 mm 1 mps 684 mmHg 87%
    09:00 +23°C° 0.1 mm 1 mps 684 mmHg 82%
    10:00 +24°C° 0.2 mm 1 mps 684 mmHg 76%
    11:00 +26°C° 0.2 mm 1 mps 684 mmHg 71%
    12:00 +27°C° 0.2 mm 1 mps 684 mmHg 65%
    13:00 +27°C° 0.9 mm 1 mps 684 mmHg 67%
    14:00 +27°C° 0.9 mm 1 mps 683 mmHg 69%
    15:00 +27°C° 0.9 mm 1 mps 683 mmHg 71%
    16:00 +26°C° 1.3 mm 1 mps 683 mmHg 77%
    17:00 +25°C° 1.3 mm 1 mps 683 mmHg 83%
    18:00 +24°C° 1.3 mm 1 mps 683 mmHg 88%
    19:00 +23°C° 0.1 mm 2 mps 683 mmHg 91%
    20:00 +21°C° 0.1 mm 2 mps 684 mmHg 93%
    21:00 +19°C° 0.1 mm 2 mps 684 mmHg 95%
    22:00 +19°C° 0 mm 2 mps 684 mmHg 95%
    23:00 +18°C° 0 mm 2 mps 685 mmHg 95%

    16 November, Friday

    Time Temperature Precipitation Wind Pressure Humidity
    00:00 +18°C° 0 mm 1 mps 685 mmHg 95%
    01:00 +18°C° 0 mm 1 mps 684 mmHg 95%
    02:00 +18°C° 0 mm 1 mps 684 mmHg 95%
    03:00 +16°C° 0 mm 1 mps 684 mmHg 94%
    04:00 +16°C° 0 mm 1 mps 684 mmHg 94%
    05:00 +16°C° 0 mm 1 mps 684 mmHg 93%
    06:00 +16°C° 0 mm 1 mps 685 mmHg 92%
    07:00 +19°C° 0 mm 1 mps 685 mmHg 84%
    08:00 +21°C° 0 mm 1 mps 686 mmHg 77%
    09:00 +23°C° 0 mm 1 mps 687 mmHg 69%
    10:00 +25°C° 0 mm 1 mps 687 mmHg 63%
    11:00 +28°C° 0 mm 1 mps 687 mmHg 57%
    12:00 +30°C° 0 mm 1 mps 687 mmHg 51%
    13:00 +30°C° 0.1 mm 1 mps 686 mmHg 53%
    14:00 +30°C° 0.1 mm 1 mps 686 mmHg 54%
    15:00 +30°C° 0.1 mm 1 mps 685 mmHg 56%
    16:00 +28°C° 0.3 mm 1 mps 685 mmHg 64%
    17:00 +27°C° 0.3 mm 1 mps 685 mmHg 72%
    18:00 +25°C° 0.3 mm 1 mps 685 mmHg 81%
    19:00 +24°C° 0 mm 1 mps 685 mmHg 83%
    20:00 +23°C° 0 mm 2 mps 686 mmHg 86%
    21:00 +21°C° 0 mm 2 mps 686 mmHg 89%
    22:00 +20°C° 0 mm 2 mps 686 mmHg 89%
    23:00 +19°C° 0 mm 2 mps 686 mmHg 90%

    17 November, Saturday

    Time Temperature Precipitation Wind Pressure Humidity
    00:00 +18°C° 0 mm 2 mps 686 mmHg 91%
    01:00 +17°C° 0 mm 2 mps 686 mmHg 91%
    02:00 +16°C° 0 mm 2 mps 685 mmHg 91%
    03:00 +16°C° 0 mm 2 mps 685 mmHg 92%
    04:00 +16°C° 0 mm 1 mps 685 mmHg 91%
    05:00 +15°C° 0 mm 1 mps 685 mmHg 91%
    06:00 +15°C° 0 mm 1 mps 685 mmHg 91%
    07:00 +18°C° 0 mm 2 mps 686 mmHg 82%
    08:00 +20°C° 0 mm 2 mps 686 mmHg 73%
    09:00 +23°C° 0 mm 2 mps 687 mmHg 64%
    10:00 +25°C° 0 mm 2 mps 687 mmHg 61%
    11:00 +27°C° 0 mm 2 mps 687 mmHg 57%
    12:00 +29°C° 0 mm 2 mps 687 mmHg 54%
    13:00 +29°C° 0 mm 2 mps 686 mmHg 54%
    14:00 +29°C° 0 mm 2 mps 685 mmHg 55%
    15:00 +30°C° 0 mm 2 mps 684 mmHg 55%
    16:00 +29°C° 0.1 mm 2 mps 684 mmHg 61%
    17:00 +28°C° 0.1 mm 1 mps 684 mmHg 67%
    18:00 +27°C° 0.1 mm 1 mps 684 mmHg 73%
    19:00 +25°C° 0 mm 1 mps 684 mmHg 78%
    20:00 +24°C° 0 mm 1 mps 684 mmHg 83%
    21:00 +23°C° 0 mm 2 mps 684 mmHg 87%
    22:00 +22°C° 0 mm 1 mps 684 mmHg 90%
    23:00 +21°C° 0 mm 1 mps 683 mmHg 93%

    18 November, Sunday

    Time Temperature Precipitation Wind Pressure Humidity
    00:00 +20°C° 0 mm 1 mps 683 mmHg 96%
    01:00 +20°C° 0 mm 1 mps 683 mmHg 96%
    02:00 +20°C° 0 mm 1 mps 683 mmHg 96%
    03:00 +20°C° 0 mm 1 mps 682 mmHg 96%
    04:00 +20°C° 0 mm 1 mps 682 mmHg 96%
    05:00 +20°C° 0 mm 1 mps 682 mmHg 96%
    06:00 +20°C° 0 mm 1 mps 682 mmHg 96%
    07:00 +21°C° 0 mm 1 mps 682 mmHg 92%
    08:00 +21°C° 0 mm 2 mps 683 mmHg 88%
    09:00 +23°C° 0 mm 2 mps 683 mmHg 83%
    10:00 +24°C° 0.1 mm 2 mps 683 mmHg 82%
    11:00 +24°C° 0.1 mm 2 mps 683 mmHg 81%
    12:00 +25°C° 0.1 mm 2 mps 682 mmHg 80%
    13:00 +25°C° 1.1 mm 2 mps 682 mmHg 84%
    14:00 +24°C° 1.1 mm 2 mps 682 mmHg 88%
    15:00 +24°C° 1.1 mm 2 mps 681 mmHg 92%
    16:00 +24°C° 2.3 mm 1 mps 681 mmHg 93%
    17:00 +23°C° 2.3 mm 1 mps 681 mmHg 95%
    18:00 +22°C° 2.3 mm 1 mps 681 mmHg 97%
    19:00 +22°C° 0.1 mm 1 mps 681 mmHg 97%
    20:00 +21°C° 0.1 mm 1 mps 682 mmHg 97%
    21:00 +21°C° 0.1 mm 1 mps 682 mmHg 97%
    22:00 +20°C° 0 mm 1 mps 682 mmHg 97%
    23:00 +20°C° 0 mm 1 mps 682 mmHg 98%
    Show more